User: anonymous   Login
Location: Santa Maria di Sala
(45.5070°N, 12.0300°E)
Time: 10:17:33
(UTC+02:00)
Language:

COSMOS 2251 DEB - Orbit

View from above orbital plane
View from above orbital plane
View from above satellite
View from above satellite

Ground track
Ground track

The orbit data is extracted from the following two-line orbital elements,

1 34563U 93036UZ  24141.55370083  .00003721  00000-0  11224-2 0  9990
2 34563  74.0394 187.3277 0013018  56.1793  65.5151 14.42785273799471
Epoch (UTC): 20 May 2024 13:17:19
Eccentricity: 0.0013018
inclination: 74.0394°
perigee height: 740 km
apogee height: 758 km
right ascension of ascending node: 187.3277°
argument of perigee: 56.1793°
revolutions per day: 14.42785273
mean anomaly at epoch: 65.5151°
orbit number at epoch: 79947

The dashed part of the orbit path shows where the satellite is in the earth's shadow,  

DLR